Location: ??
(34.8145°N, 135.7852°E)
Time: 21:37:40
(UTC+00:00)

Daily predictions for brighter satellites

Satellite Brightness Start Highest point End
(mag) Time Altitude Azimuth Time Altitude Azimuth Time Altitude Azimuth
STARLINK-1158 3.9 12:00:02 10° NW 12:04:06 55° NE 12:04:38 50° ENE
Cosmos 1544 3.0 12:04:36 10° N 12:08:06 80° NNE 12:08:06 80° NNE
STARLINK-1162 3.7 12:04:58 10° NW 12:09:03 61° NE 12:09:24 58° ENE
SAR-Lupe-2 4.0 12:06:20 10° N 12:09:52 59° WNW 12:10:35 47° SW
Cosmos 1975 2.8 12:09:03 10° N 12:13:06 76° W 12:13:29 68° SSW
Cosmos 44 Rocket 3.9 12:12:55 10° NW 12:17:40 50° WSW 12:18:49 41° SSW
STARLINK-1159 3.6 12:14:53 10° NW 12:18:59 76° NNE 12:18:59 76° NNE
CARTOSAT-1 4.0 12:22:41 47° ENE 12:22:41 47° ENE 12:26:31 10° N
Terra 2.8 12:24:07 33° ENE 12:24:07 33° ENE 12:28:10 10° N
STARLINK-1171 3.6 12:19:53 10° NW 12:23:47 77° NNW 12:23:47 77° NNW
Cosmos 1452 Rocket 3.4 12:24:39 61° ESE 12:24:48 62° ESE 12:30:01 10° NNE
Cosmos 724 4.3 12:19:13 10° NNW 12:25:08 74° ENE 12:26:24 56° SE
Meteor 1-13 Rocket 4.1 12:24:53 59° SSE 12:25:49 72° E 12:31:26 10° NNE
Lacrosse 5 4.2 12:23:44 10° N 12:26:31 15° NNE 12:28:58 11° ENE
STARLINK-1155 3.8 12:24:52 10° NW 12:28:34 70° NW 12:28:34 70° NW
Nadezhda 4 Rocket 4.5 12:30:56 40° E 12:30:59 40° E 12:36:39 10° NNE
Meteor 2-4 Rocket 3.9 12:28:54 33° SSW 12:31:13 63° W 12:36:32 10° N
Cosmos 1420 Rocket 4.0 12:30:12 43° SSW 12:31:55 75° WNW 12:37:07 10° NNE
STARLINK-1166 4.0 12:29:50 10° NW 12:33:20 61° WNW 12:33:20 61° WNW
COSMOS 2406 3.1 12:29:04 10° NNW 12:34:52 80° ENE 12:35:38 67° SE
Cosmos 407 Rocket 4.0 12:30:28 10° NNW 12:35:41 55° WSW 12:36:44 46° SW
Cosmos 1437 Rocket 4.3 12:40:11 27° NNE 12:40:11 27° NNE 12:42:04 10° NNE
STARLINK-1165 4.2 12:34:50 10° NW 12:38:08 52° WNW 12:38:08 52° WNW
SPOT 1/Viking Rocket 3.6 12:39:23 61° SSW 12:40:03 69° WSW 12:45:13 10° NNW
IGS 5A 4.3 12:41:55 44° W 12:41:55 44° W 12:45:49 10° NNW
Cosmos 909 Rocket 4.2 12:34:34 10° NNW 12:41:57 72° WSW 12:43:30 54° S
STARLINK-1169 4.5 12:39:50 10° NW 12:42:55 45° WNW 12:42:55 45° WNW
Cosmos 2279 Rocket 3.9 12:38:20 10° N 12:44:36 86° E 12:45:37 65° SSE
Cosmos 371 Rocket 3.3 12:47:05 78° WNW 12:47:05 78° WNW 12:51:52 10° NNE
Cosmos 1300 Rocket 3.9 12:45:18 10° N 12:49:07 64° NNW 12:49:07 64° NNW
Resurs 01 Rocket 4.2 12:51:32 10° WSW 12:53:23 12° W 12:55:14 10° WNW
Cosmos 2297 4.4 12:56:06 42° ENE 12:56:06 42° ENE 13:00:12 10° NNE
Aureole 1 Rocket 4.2 12:50:58 10° NW 12:55:13 43° WSW 12:55:31 42° WSW
SPOT 5 3.0 12:56:20 78° WNW 12:56:20 78° WNW 13:01:25 10° NNW
Cosmos 1674 Rocket 4.4 12:59:29 48° N 12:59:29 48° N 13:02:40 10° N
Cosmos 1092 Rocket 4.4 13:09:12 48° ENE 13:09:12 48° ENE 13:14:23 10° NNE
Cosmos 2082 Rocket 2.4 13:09:51 10° NNW 13:15:05 62° NE 13:15:05 62° NE
ERS-1 Rocket 4.1 13:20:31 36° W 13:20:31 36° W 13:24:52 10° NNW
Meteor 1-15 Rocket 4.3 13:18:00 10° N 13:23:33 78° N 13:23:33 78° N
Cosmos 1833 Rocket 3.0 13:19:26 10° NNW 13:24:22 57° WNW 13:24:22 57° WNW
Cosmos 2369 Rocket 4.1 13:28:27 18° ENE 13:28:27 18° ENE 13:30:17 10° NE
SeaSat 1 3.1 13:25:07 10° NNE 13:29:30 52° NW 13:29:30 52° NW
Cosmos 1943 Rocket 3.5 13:40:11 30° NE 13:40:11 30° NE 13:43:10 10° NNE
USA 215 3.9 13:49:12 42° ENE 13:50:31 47° NE 13:56:43 10° NNW
Terra 4.0 14:02:59 19° WNW 14:02:59 19° WNW 14:05:17 10° NW
Cosmos 2026 Rocket 4.2 14:03:14 67° NNW 14:03:14 67° NNW 14:08:44 10° N
Lacrosse 5 3.3 14:05:12 10° NW 14:08:08 35° NNW 14:08:08 35° NNW
ATLAS 2AS CENTAUR R/B 3.2 14:38:55 61° E 14:38:55 61° E 14:45:55 10° NE
NOSS 3-2 (A) 4.3 14:44:42 10° NNW 14:52:28 65° ENE 14:53:29 61° E
USA 238 DEB 3.9 14:52:06 10° NNW 14:59:22 70° ENE 14:59:22 70° ENE
USA 238 3.9 14:52:11 10° NNW 14:59:29 69° ENE 14:59:30 69° ENE
Cosmos 2369 Rocket 3.5 15:10:12 34° NW 15:10:12 34° NW 15:14:36 10° N
ATLAS CENTAUR R/B 4.0 15:19:59 17° NE 15:19:59 17° NE 15:21:04 10° NE
Cosmos 1943 Rocket 4.1 15:21:40 20° WNW 15:21:49 20° WNW 15:25:47 10° NNW
CZ-2D R/B 4.4 15:20:22 10° ENE 15:22:19 15° ENE 15:22:19 15° ENE
Cosmos 2098 Rocket 4.3 15:32:08 68° NNW 15:32:08 68° NNW 15:38:27 10° N
Resurs 1-4 Rocket 4.0 15:30:47 10° NE 15:33:42 20° ENE 15:33:42 20° ENE
COSMOS 2455 3.3 15:36:04 57° N 15:36:04 57° N 15:40:50 10° NNE
NOSS 3-2 (C) 4.0 15:49:15 10° NNW 15:57:11 80° WSW 15:57:37 78° SSW
NOSS 3-4 (A) 4.4 16:00:30 35° NW 16:00:44 35° NW 16:06:23 10° NNE
NOSS 3-4 (C) 4.4 16:00:37 35° NW 16:00:49 36° NW 16:06:30 10° NNE
SL-16 R/B 3.3 16:10:35 38° ESE 16:12:05 44° ENE 16:17:53 10° N
ATLAS 3B R/B 3.2 16:07:04 10° NNW 16:13:48 56° NE 16:17:06 31° ESE
SJ 16-02 4.4 16:13:51 10° NE 16:14:35 10° ENE 16:15:19 10° ENE
CENTAUR R/B 3.1 16:10:06 10° NW 16:18:28 70° WSW 16:19:16 67° SSW
Cosmos 2297 Rocket 4.5 16:18:24 10° N 16:22:29 20° ENE 16:26:33 10° ESE
Cosmos 1745 Rocket 3.8 16:29:26 86° NW 16:29:26 86° NW 16:35:30 10° N
ATLAS 2AS CENTAUR R/B 4.3 16:26:19 23° W 16:29:32 30° NW 16:36:21 10° NNE
UNK 4.5 16:32:19 50° NE 16:32:19 50° NE 16:36:12 10° N
CZ-4B R/B 3.9 16:30:46 10° NNE 16:35:34 61° E 16:35:34 61° E
AQUA 4.4 16:34:47 10° NNE 16:38:52 54° ENE 16:38:52 54° ENE
Meteor 2-1 Rocket 4.5 16:40:02 10° N 16:45:29 60° E 16:46:17 54° ESE
Cosmos 1812 Rocket 4.2 16:45:01 10° N 16:48:52 54° NE 16:48:52 54° NE
IRS-1D 3.9 16:47:13 10° NNE 16:52:28 57° E 16:52:52 56° ESE
SL-4 R/B 4.5 16:51:26 17° NW 16:52:58 20° NNW 16:56:28 10° NNE
Cosmos 1602 Rocket 4.5 16:56:15 41° NNW 16:56:15 41° NNW 16:59:16 10° N
Cosmos 1825 Rocket 4.4 16:55:36 44° E 16:55:36 44° E 16:59:29 10° NNE
Cosmos 1697 Rocket 3.5 16:54:29 37° SE 16:55:27 40° ESE 17:00:42 10° NE
ATLAS CENTAUR R/B 3.9 16:56:09 13° NW 16:56:09 13° NW 16:58:08 10° NNW
Cosmos 2227 Rocket 3.7 16:53:09 10° N 16:58:16 34° ENE 17:03:21 10° SE
CZ-2D R/B 2.4 16:58:40 10° N 17:03:38 52° WNW 17:03:38 52° WNW
Cosmos 1763 Rocket 3.5 17:03:37 63° SE 17:03:57 65° ESE 17:09:01 10° NNE
CZ-4C R/B 2.3 17:04:50 51° ESE 17:05:02 51° ESE 17:10:15 10° NE
ADEOS II 2.3 17:03:15 10° NNE 17:08:29 62° ESE 17:09:25 52° SSE
GP-B 3.2 17:04:35 10° N 17:08:59 70° E 17:08:59 70° E
USA 81 4.1 17:12:58 60° W 17:13:01 60° W 17:18:13 10° N
Resurs 1-4 Rocket 2.7 17:09:45 10° N 17:14:39 40° WNW 17:14:47 39° WNW
Meteor 1-21 Rocket 4.1 17:14:39 61° WSW 17:15:08 64° W 17:20:44 10° N
Alouette 2 Rocket 4.1 17:09:49 10° N 17:15:28 62° ENE 17:16:27 48° SE
Cosmos-2242 3.9 17:11:26 10° N 17:15:32 45° E 17:16:30 38° ESE
Cosmos 1455 2.8 17:11:51 10° N 17:14:58 54° NE 17:14:58 54° NE
IUS-9 SRM-1 4.5 17:14:58 42° SSW 17:16:31 46° S 17:43:37 10° ESE
Cosmos 1709 Rocket 3.9 17:18:30 54° SW 17:19:32 63° W 17:25:35 10° N
NPP 4.2 17:14:58 10° N 17:20:02 42° WNW 17:20:26 42° W
Cosmos 1656 3.8 17:21:10 54° WSW 17:22:02 61° WNW 17:27:38 10° NNE
ARIANE 5 R/B 3.1 17:18:37 10° NNE 17:23:32 50° E 17:25:13 35° SSE
Cosmos 2369 3.7 17:26:11 49° S 17:27:44 75° ESE 17:33:22 10° NNE
Cosmos 1703 3.4 17:29:59 65° NW 17:29:59 65° NW 17:33:34 10° N
Cosmos 1898 Rocket 4.0 17:26:11 10° N 17:31:28 61° ENE 17:36:21 12° SSE
Cosmos 468 Rocket 4.1 17:31:39 50° W 17:32:18 53° WNW 17:37:20 10° N
Cosmos 1570 Rocket 4.1 17:30:50 46° S 17:32:23 74° ESE 17:37:41 10° NNE
Cosmos 1758 Rocket 3.9 17:33:35 47° WNW 17:33:35 47° WNW 17:37:32 10° N
IDEFIX/ARIANE 42P 4.0 17:29:56 10° NE 17:34:36 32° E 17:38:24 14° SSE
Cosmos 2208 Rocket 4.3 17:33:04 40° SSE 17:34:50 63° ESE 17:40:02 10° NNE
H-2A R/B 4.1 17:32:22 10° SE 17:35:59 27° ENE 17:39:40 10° NNE
OAO 1 4.4 17:35:28 35° W 17:37:55 86° S 17:43:27 10° E
Meteor 2-10 Rocket 3.5 17:34:21 10° NNW 17:39:31 60° W 17:40:32 50° SW
Cosmos 1937 Rocket 4.2 17:37:08 10° N 17:42:17 54° ENE 17:47:25 10° SSE
Cosmos 1980 Rocket 2.5 17:44:46 29° S 17:47:31 60° ESE 17:53:02 10° NNE
CZ-2C R/B 4.2 17:44:27 10° NE 17:47:46 31° E 17:49:41 19° SSE
Cosmos 1953 Rocket 3.6 17:48:45 51° SW 17:49:32 61° W 17:53:58 10° N
Cosmos 2219 3.2 17:45:10 10° NNW 17:50:42 56° WSW 17:53:13 31° S
USA 234 3.4 17:44:22 10° NE 17:50:52 65° SE 17:54:21 29° SSW
Cosmos 1814 Rocket 4.0 17:49:54 35° S 17:52:15 83° ESE 17:57:37 10° NNE
FALCON 9 R/B 4.4 17:44:13 11° W 17:52:22 83° S 18:30:30 10° ESE
Lacrosse 4 Rocket 4.0 17:49:48 10° N 17:53:10 22° ENE 17:56:27 10° ESE
SJ 16-02 1.3 17:49:11 10° NNW 17:53:33 61° WSW 17:54:44 44° SSW
STARLINK-1228 3.1 17:51:50 10° NW 17:55:10 77° NE 17:58:29 10° SE
SL-16 R/B 3.6 17:55:40 24° W 17:55:48 24° W 18:00:41 10° NW
STARLINK-1234 2.8 17:57:02 10° NW 18:00:09 80° NE 18:03:16 10° SE
Cosmos 2074 Rocket 3.9 17:56:53 26° SSW 18:00:37 78° W 18:06:57 10° N
STARLINK-1212 3.6 17:58:27 10° NW 18:01:30 53° NE 18:04:32 10° ESE
STARLINK-1209 2.7 17:58:29 10° NW 18:01:39 89° SW 18:04:48 10° SE
STARLINK-1105 3.6 17:58:55 10° NW 18:01:58 54° NE 18:04:59 10° ESE
Cosmos 858 Rocket 4.5 17:57:28 10° NNW 18:02:46 86° ENE 18:08:03 10° SSE
STARLINK-1247 3.5 17:59:49 10° NW 18:02:53 55° NE 18:05:56 10° ESE
STARLINK-1227 3.5 18:00:17 10° NW 18:03:19 56° NE 18:06:22 10° ESE
ATLAS 3B R/B 3.7 17:58:39 10° WNW 18:04:03 25° WSW 18:04:12 25° WSW
STARLINK-1226 3.4 18:01:08 10° NW 18:04:12 58° NE 18:07:16 10° ESE
STARLINK-1215 3.4 18:02:04 10° NW 18:05:09 59° NE 18:08:13 10° SE
Cosmos 2297 Rocket 2.3 18:01:21 10° NNW 18:06:48 51° WSW 18:11:00 17° S
STARLINK-1217 3.3 18:03:49 10° NW 18:06:55 63° NE 18:10:00 10° SE
STARLINK-1229 3.2 18:04:44 10° NW 18:07:50 64° NE 18:10:55 10° SE
STARLINK-1270 3.2 18:05:36 10° NW 18:08:43 66° NE 18:11:48 10° SE
Cosmos 2278 3.7 18:06:31 29° SW 18:09:26 71° WNW 18:15:05 10° NNE
Meteor 1-11 4.3 18:06:39 29° SSW 18:09:27 58° W 18:14:59 10° N
Cosmos 2082 3.8 18:04:35 10° NNW 18:10:16 80° ENE 18:15:52 10° SSE
STARLINK-1189 3.1 18:07:26 10° NW 18:10:33 70° NE 18:13:38 10° SE
STARLINK-1188 3.0 18:08:18 10° NW 18:11:25 72° NE 18:14:30 10° SE
Cosmos 2184 Rocket 4.0 18:07:55 24° SSW 18:11:46 66° W 18:17:54 10° N
STARLINK-1235 2.6 18:08:59 10° NW 18:12:05 78° SW 18:15:10 10° SE
STARLINK-1187 2.7 18:09:24 10° NW 18:12:30 88° NE 18:15:36 10° SE
STARLINK-1191 2.9 18:10:46 10° NW 18:13:52 77° NE 18:16:57 10° SE
STARLINK-1221 2.9 18:11:39 10° NW 18:14:44 79° NE 18:17:50 10° SE
Cosmos 540 Rocket 3.7 18:13:12 29° SW 18:15:37 53° WNW 18:20:39 10° N
STARLINK-1222 2.8 18:12:32 10° NW 18:15:38 81° NE 18:18:43 10° SE
STARLINK-1214 2.8 18:13:27 10° NW 18:16:32 83° NE 18:19:38 10° SE
Cosmos 2322 Rocket 4.2 18:13:46 10° SSE 18:18:05 23° E 18:22:24 10° NE
Iridium 2 3.5 18:16:16 10° N 18:20:02 87° W 18:22:56 16° S
Cosmos 990 Rocket 4.4 18:16:33 10° NNW 18:21:27 41° WSW 18:25:01 17° SSW
IRIDIUM 106 4.3 18:17:37 11° S 18:22:38 85° E 18:27:52 10° N
Cosmos 841 Rocket 4.2 18:23:58 23° WSW 18:26:37 38° WNW 18:31:30 10° N
ERS-2 2.5 18:26:11 24° SSW 18:27:57 43° W 18:31:28 10° NNW
USA 129 3.8 18:26:57 10° N 18:27:19 13° N 18:27:19 13° N
Cosmos 1076 Rocket 4.1 18:26:20 10° S 18:30:35 58° E 18:34:53 10° NNE
Cosmos 1610 Rocket 4.4 18:25:28 14° SSW 18:30:46 70° W 18:36:54 10° N
STARLINK-43 3.3 18:29:22 27° WSW 18:31:14 70° NW 18:34:54 10° NE
CZ-4B R/B 3.9 18:30:14 10° SE 18:32:37 21° ENE 18:35:01 10° NNE
COBE Rocket 4.2 18:29:31 14° SSW 18:33:32 46° W 18:38:20 10° NNW
Cosmos 372 Rocket 4.3 18:28:35 10° NNW 18:33:42 70° ENE 18:38:49 10° SSE
STARLINK 1040 2.4 18:33:01 36° WSW 18:33:52 66° NW 18:36:26 10° NE
Landsat 5 3.6 18:30:31 10° S 18:34:57 81° WSW 18:39:30 10° NNW
STARLINK-1233 4.4 18:34:48 10° NW 18:38:53 56° NE 18:42:56 10° ESE
STARLINK-42 4.0 18:36:56 17° S 18:38:57 36° SE 18:41:56 10° ENE
Cosmos 1697 Rocket 4.0 18:36:14 15° WSW 18:39:30 25° WNW 18:44:07 10° N
COSMOS 2441 4.4 18:36:07 10° NNE 18:41:02 84° E 18:45:56 10° SSW
Skynet4D Del rocket 4.5 18:38:04 17° SW 18:41:21 31° S 18:46:02 10° ESE
SL-08 R/B 4.3 18:39:22 18° SW 18:41:39 25° W 18:45:32 10° NW
Cosmos 2227 Rocket 3.0 18:37:22 10° NW 18:42:08 28° WSW 18:46:52 10° SSW
Cosmos 2154 Rocket 4.2 18:37:48 12° SSW 18:43:40 57° W 18:49:51 10° N
STARLINK-1204 4.2 18:39:46 10° NW 18:43:53 62° NE 18:47:58 10° SE
SL-16 R/B 3.0 18:38:59 10° S 18:44:25 50° ESE 18:49:53 10° NNE
PAYLOAD A 4.4 18:39:52 10° NNE 18:44:29 58° E 18:49:09 10° S
MSX 3.8 18:39:45 10° N 18:45:31 79° WNW 18:51:15 10° SSW
Meteor 1-28 Rocket 4.3 18:44:08 17° SW 18:46:07 26° W 18:49:20 10° NW
ADEOS II 4.0 18:44:49 10° NNW 18:47:35 15° WNW 18:50:20 10° W
STARLINK-1238 4.0 18:44:41 10° NW 18:48:49 69° NE 18:52:56 10° SE
Cosmos 2150 Rocket 4.1 18:47:51 10° NNW 18:53:03 79° ENE 18:58:10 10° SSE
STARLINK-1316 4.2 18:51:05 11° SSW 18:53:46 32° SE 18:56:35 10° ENE
STARLINK-1201 3.8 18:49:41 10° NW 18:53:50 78° NE 18:57:58 10° SE
CZ-4C R/B 3.8 18:50:14 10° W 18:53:56 20° NW 18:58:03 10° N
PSLV R/B 3.5 18:50:03 10° NNE 18:54:18 87° W 18:58:28 10° SSW
STARLINK-1257 4.2 18:51:56 11° SSW 18:54:38 33° SE 18:57:29 10° ENE
Cosmos 2221 2.6 18:50:42 10° NNW 18:54:58 60° W 18:59:15 10° S
STARLINK-1256 4.1 18:52:51 11° SSW 18:55:36 34° SE 18:58:27 10° ENE
Cosmos 1892 2.7 18:51:58 10° SSW 18:55:46 66° W 18:59:35 10° N
STARLINK-55 3.0 18:53:21 15° SW 18:55:53 77° SE 18:59:04 10° NE
STARLINK-1213 4.1 18:53:40 11° SSW 18:56:26 34° SE 18:59:19 10° ENE
STARLINK-1263 4.1 18:54:32 10° SSW 18:57:21 35° SE 19:00:13 10° ENE
NOSS 2-1 (E) 3.8 18:54:38 10° SSW 18:58:02 46° ESE 19:01:19 10° NE
STARLINK-1259 4.0 18:55:23 10° SSW 18:58:13 36° SE 19:01:07 10° ENE
STARLINK-1206 3.6 18:54:39 10° NW 18:58:48 86° NE 19:02:56 10° SE
STARLINK-1265 4.0 18:56:06 10° SSW 18:58:57 37° SE 19:01:52 10° ENE
STARLINK-1285 4.0 18:56:15 10° SSW 18:59:07 37° SE 19:02:01 10° ENE
ATLAS CENTAUR R/B 3.6 18:55:17 10° WNW 18:59:55 45° SW 19:11:27 10° SSE
Cosmos 1869 3.3 18:56:17 10° NNW 19:00:06 57° W 19:03:52 10° S
Cosmos 1400 Rocket 4.2 18:57:03 10° NW 19:00:15 22° W 19:03:28 10° SW
STARLINK-1296 3.9 18:58:00 10° SSW 19:00:55 39° SE 19:03:51 10° ENE
Cosmos 962 Rocket 4.5 18:55:37 10° SSW 19:01:40 68° W 19:07:47 10° N
STARLINK-1260 3.8 18:58:52 10° SSW 19:01:49 40° SE 19:04:45 10° ENE
STARLINK-1291 3.9 18:58:56 10° SSW 19:02:01 42° SE 19:05:08 10° ENE
ARIANE 5 R/B 4.2 18:59:08 10° NNW 19:02:10 16° WNW 19:05:10 10° WSW
STARLINK-1318 3.8 18:59:45 10° SSW 19:02:41 41° SE 19:05:39 10° ENE
STARLINK-1268 3.8 18:59:57 10° SSW 19:02:53 41° SE 19:05:50 10° ENE
STARLINK-1264 3.8 19:00:20 10° SSW 19:03:24 43° SE 19:06:28 10° ENE
STARLINK-1275 3.7 19:00:39 10° SSW 19:03:36 43° SE 19:06:34 10° ENE
STARLINK-1205 3.6 18:59:37 10° NW 19:03:46 85° SW 19:07:54 10° SE
STARLINK-1309 3.7 19:01:33 10° SSW 19:04:30 44° SE 19:07:29 10° ENE
STARLINK-1267 3.8 19:01:40 10° SSW 19:04:46 45° SE 19:07:51 10° ENE
STARLINK-1282 3.7 19:02:27 10° SSW 19:05:26 45° SE 19:08:24 10° ENE
STARLINK-28 3.0 19:02:57 12° SW 19:05:49 72° NW 19:09:01 10° NE
STARLINK-1272 3.7 19:02:58 10° SSW 19:06:04 47° SE 19:09:11 10° ENE
STARLINK-1313 3.3 19:03:30 10° SSW 19:06:33 57° SE 19:09:36 10° NE
Uosat 12 SS-18 rocket 4.2 19:02:24 10° NNW 19:06:46 88° ENE 19:11:36 10° SSE
STARLINK-1207 3.6 19:04:18 10° SSW 19:07:24 49° SE 19:10:32 10° NE
STARLINK-1279 3.2 19:04:23 10° SSW 19:07:25 58° SE 19:10:29 10° NE
STARLINK-1298 3.5 19:05:07 10° SSW 19:08:07 49° SE 19:11:09 10° NE
CZ-4C R/B 4.4 19:05:44 10° SSW 19:08:29 21° W 19:11:17 10° NW
STARLINK-1218 3.5 19:04:35 10° NW 19:08:44 76° SW 19:12:51 10° SE
STARLINK-1266 3.5 19:05:40 10° SSW 19:08:48 51° SE 19:11:57 10° NE
STARLINK-1293 3.5 19:05:59 10° SSW 19:09:00 50° SE 19:12:02 10° NE
Cosmos 2151 3.4 19:05:55 10° S 19:10:05 66° E 19:14:20 10° NNE
STARLINK-1284 3.5 19:07:05 10° SSW 19:10:13 54° SE 19:13:23 10° NE
STARLINK-1255 3.4 19:07:47 10° SSW 19:10:49 53° SE 19:13:51 10° NE
STARLINK-1258 3.4 19:08:24 10° SSW 19:11:33 56° SE 19:14:44 10° NE
STARLINK-1311 3.0 19:08:50 10° SW 19:11:46 66° SE 19:14:44 10° NE
H-2A R/B 3.4 19:08:41 10° SW 19:11:54 21° W 19:15:11 10° NW
STARLINK-1292 3.4 19:09:41 10° SSW 19:12:50 58° SE 19:16:00 10° NE
ALOS 4.4 19:09:02 10° NE 19:13:03 28° E 19:17:02 10° SSE
Meteor 1-31 Rocket 4.3 19:10:10 10° NNE 19:13:42 36° E 19:17:13 10° SSE
STARLINK-1254 3.6 19:09:35 10° NW 19:13:42 68° SW 19:17:49 10° SE
IDEFIX/ARIANE 42P 3.7 19:09:39 10° NNW 19:14:00 27° WNW 19:18:20 10° SW
STARLINK-1274 3.3 19:11:15 10° SW 19:14:27 61° SE 19:17:39 10° NE
Cosmos 2298 Rocket 4.1 19:09:19 10° NNW 19:14:30 57° WSW 19:19:40 10° S
STARLINK-1289 3.2 19:12:43 10° SW 19:15:55 64° SE 19:19:07 10° NE
STARLINK-1303 3.2 19:13:59 10° SW 19:17:12 67° SE 19:20:26 10° NE
STARLINK-41 2.9 19:15:21 10° SW 19:18:30 74° NW 19:21:37 10° NE
STARLINK-1231 3.6 19:14:36 10° NW 19:18:42 60° SW 19:22:46 10° SSE
STARLINK-1312 3.2 19:15:31 10° SW 19:18:45 70° SE 19:21:59 10° NE
deb Chang Zheng 4 4.3 19:15:57 10° N 19:19:54 36° WNW 19:23:49 10° SW
Cosmos 1315 Rocket 3.3 19:16:21 10° NNW 19:19:57 37° W 19:23:34 10° SSW
